Time,TemperatureF,DewpointF,PressureIn,WindDirection,WindDirectionDegrees,WindSpeedMPH,WindSpeedGustMPH,Humidity,HourlyPrecipIn,Conditions,Clouds,dailyrainin,SoftwareType,DateUTC
2013-01-26 00:09:00,28.0,20.5,30.22,WSW,238,0.0,0.0,73,0.00,CLR,,0.00,WeatherDisplay:10.37,2013-01-26 06:09:00,
2013-01-26 00:19:00,27.9,20.4,30.23,WSW,238,0.0,0.0,73,0.00,CLR,,0.00,WeatherDisplay:10.37,2013-01-26 06:19:00,
2013-01-26 00:29:00,27.7,20.5,30.22,WSW,238,0.0,0.0,74,0.00,CLR,,0.00,WeatherDisplay:10.37,2013-01-26 06:29:00,
2013-01-26 00:34:00,27.7,20.5,30.23,WSW,238,0.0,2.0,74,0.00,CLR,,0.00,WeatherDisplay:10.37,2013-01-26 06:34:00,
2013-01-26 00:39:00,27.9,21.0,30.23,WSW,238,1.0,3.0,75,0.00,CLR,,0.00,WeatherDisplay:10.37,2013-01-26 06:39:00,
2013-01-26 00:49:00,28.9,22.0,30.23,WSW,238,1.0,3.0,75,0.00,CLR,,0.00,WeatherDisplay:10.37,2013-01-26 06:49:00,
2013-01-26 00:54:00,29.4,22.4,30.23,WSW,238,1.0,3.0,75,0.00,CLR,,0.00,WeatherDisplay:10.37,2013-01-26 06:54:00,
2013-01-26 00:59:00,29.9,22.6,30.22,WSW,238,1.0,3.0,74,0.00,CLR,,0.00,WeatherDisplay:10.37,2013-01-26 06:59:00,
2013-01-26 01:09:00,30.1,22.2,30.23,WSW,238,1.0,3.0,72,0.00,CLR,,0.00,WeatherDisplay:10.37,2013-01-26 07:09:00,
2013-01-26 01:19:00,29.8,21.9,30.23,WSW,238,0.0,2.0,72,0.00,CLR,,0.00,WeatherDisplay:10.37,2013-01-26 07:19:00,
2013-01-26 01:29:00,29.7,22.1,30.22,WSW,238,0.0,0.0,73,0.00,CLR,,0.00,WeatherDisplay:10.37,2013-01-26 07:29:00,
2013-01-26 01:39:00,29.4,22.1,30.22,WSW,238,1.0,3.0,74,0.00,CLR,,0.00,WeatherDisplay:10.37,2013-01-26 07:39:00,
2013-01-26 01:49:00,29.4,22.1,30.22,WSW,238,1.0,3.0,74,0.00,CLR,,0.00,WeatherDisplay:10.37,2013-01-26 07:49:00,
2013-01-26 01:54:00,29.4,22.1,30.22,WSW,238,1.0,2.0,74,0.00,CLR,,0.00,WeatherDisplay:10.37,2013-01-26 07:54:00,
2013-01-26 01:59:00,29.4,22.1,30.23,WSW,238,0.0,2.0,74,0.00,CLR,,0.00,WeatherDisplay:10.37,2013-01-26 07:59:00,
2013-01-26 02:09:00,29.3,22.1,30.23,WSW,238,0.0,2.0,74,0.00,CLR,,0.00,WeatherDisplay:10.37,2013-01-26 08:09:00,
2013-01-26 02:14:00,29.5,22.2,30.23,WSW,238,0.0,0.0,74,0.00,CLR,,0.00,WeatherDisplay:10.37,2013-01-26 08:14:00,
2013-01-26 02:19:00,29.5,21.9,30.23,WSW,238,0.0,0.0,73,0.00,CLR,,0.00,WeatherDisplay:10.37,2013-01-26 08:19:00,
2013-01-26 02:29:00,29.4,22.1,30.23,WSW,238,0.0,0.0,74,0.00,CLR,,0.00,WeatherDisplay:10.37,2013-01-26 08:29:00,
2013-01-26 02:34:00,29.4,22.1,30.23,WSW,238,0.0,0.0,74,0.00,CLR,,0.00,WeatherDisplay:10.37,2013-01-26 08:34:00,
2013-01-26 02:39:00,29.5,22.2,30.23,WSW,238,1.0,2.0,74,0.00,CLR,,0.00,WeatherDisplay:10.37,2013-01-26 08:39:00,
2013-01-26 02:49:00,29.5,22.2,30.23,WSW,238,0.0,0.0,74,0.00,CLR,,0.00,WeatherDisplay:10.37,2013-01-26 08:49:00,
2013-01-26 02:59:00,29.5,22.2,30.23,WSW,238,0.0,2.0,74,0.00,CLR,,0.00,WeatherDisplay:10.37,2013-01-26 08:59:00,
2013-01-26 03:04:00,29.5,22.2,30.23,WSW,238,0.0,2.0,74,0.00,CLR,,0.00,WeatherDisplay:10.37,2013-01-26 09:04:00,
2013-01-26 03:09:00,29.7,22.4,30.23,WSW,238,1.0,2.0,74,0.00,CLR,,0.00,WeatherDisplay:10.37,2013-01-26 09:09:00,
2013-01-26 03:14:00,29.7,22.4,30.23,WSW,238,0.0,1.0,74,0.00,CLR,,0.00,WeatherDisplay:10.37,2013-01-26 09:14:00,
2013-01-26 03:19:00,29.7,22.4,30.24,WSW,238,1.0,3.0,74,0.00,CLR,,0.00,WeatherDisplay:10.37,2013-01-26 09:19:00,
2013-01-26 03:29:00,29.5,22.2,30.23,WSW,238,0.0,0.0,74,0.00,CLR,,0.00,WeatherDisplay:10.37,2013-01-26 09:29:00,
2013-01-26 03:34:00,29.5,22.6,30.23,WSW,238,1.0,2.0,75,0.00,CLR,,0.00,WeatherDisplay:10.37,2013-01-26 09:34:00,
2013-01-26 03:39:00,29.4,22.4,30.23,WSW,238,0.0,2.0,75,0.00,CLR,,0.00,WeatherDisplay:10.37,2013-01-26 09:39:00,
2013-01-26 03:49:00,29.4,22.4,30.22,WSW,238,1.0,2.0,75,0.00,CLR,,0.00,WeatherDisplay:10.37,2013-01-26 09:49:00,
2013-01-26 03:59:00,29.2,22.6,30.23,WSW,238,0.0,0.0,76,0.00,CLR,,0.00,WeatherDisplay:10.37,2013-01-26 09:59:00,
2013-01-26 04:09:00,29.2,22.3,30.23,WSW,238,0.0,1.0,75,0.00,CLR,,0.00,WeatherDisplay:10.37,2013-01-26 10:09:00,
2013-01-26 04:19:00,29.2,22.6,30.23,WSW,238,1.0,3.0,76,0.00,CLR,,0.00,WeatherDisplay:10.37,2013-01-26 10:19:00,
2013-01-26 04:29:00,29.2,22.3,30.22,WSW,238,0.0,2.0,75,0.00,CLR,,0.00,WeatherDisplay:10.37,2013-01-26 10:29:00,
2013-01-26 04:39:00,29.1,22.2,30.23,WSW,238,0.0,2.0,75,0.00,CLR,,0.00,WeatherDisplay:10.37,2013-01-26 10:39:00,
2013-01-26 04:49:00,28.8,21.9,30.22,WSW,238,1.0,3.0,75,0.00,CLR,,0.00,WeatherDisplay:10.37,2013-01-26 10:49:00,
2013-01-26 04:54:00,28.8,21.9,30.22,WSW,238,1.0,3.0,75,0.00,CLR,,0.00,WeatherDisplay:10.37,2013-01-26 10:54:00,
2013-01-26 04:59:00,28.9,22.0,30.23,SW,235,1.0,4.0,75,0.00,CLR,,0.00,WeatherDisplay:10.37,2013-01-26 10:59:00,
2013-01-26 05:09:00,28.8,22.2,30.23,SW,228,1.0,3.0,76,0.00,CLR,,0.00,WeatherDisplay:10.37,2013-01-26 11:09:00,
2013-01-26 05:19:00,28.6,22.0,30.23,SW,228,1.0,3.0,76,0.00,-SN,,0.00,WeatherDisplay:10.37,2013-01-26 11:19:00,
2013-01-26 05:29:00,28.8,22.2,30.24,SW,228,2.0,4.0,76,0.00,-SN,,0.00,WeatherDisplay:10.37,2013-01-26 11:29:00,
2013-01-26 05:39:00,29.3,22.7,30.24,East,83,2.0,6.0,76,0.00,-SN,,0.00,WeatherDisplay:10.37,2013-01-26 11:39:00,
2013-01-26 05:49:00,30.7,24.0,30.24,East,86,3.0,6.0,76,0.00,-SN,,0.00,WeatherDisplay:10.37,2013-01-26 11:49:00,
2013-01-26 05:54:00,31.4,24.1,30.24,East,84,5.0,7.0,74,0.00,-SN,,0.00,WeatherDisplay:10.37,2013-01-26 11:54:00,
2013-01-26 05:59:00,32.2,24.2,30.25,East,95,3.0,6.0,72,0.00,-SN,,0.00,WeatherDisplay:10.37,2013-01-26 11:59:00,
2013-01-26 06:09:00,33.3,24.2,30.25,ENE,78,2.0,7.0,69,0.00,SCT,,0.00,WeatherDisplay:10.37,2013-01-26 12:09:00,
2013-01-26 06:14:00,33.4,24.0,30.25,ENE,76,2.0,7.0,68,0.00,SCT,,0.00,WeatherDisplay:10.37,2013-01-26 12:14:00,
2013-01-26 06:19:00,33.4,23.6,30.25,ENE,78,3.0,8.0,67,0.00,SCT,,0.00,WeatherDisplay:10.37,2013-01-26 12:19:00,
2013-01-26 06:29:00,33.6,23.8,30.25,East,90,3.0,7.0,67,0.00,SCT,,0.00,WeatherDisplay:10.37,2013-01-26 12:29:00,
2013-01-26 06:34:00,33.4,23.3,30.25,East,84,3.0,7.0,66,0.00,SCT,,0.00,WeatherDisplay:10.37,2013-01-26 12:34:00,
2013-01-26 06:39:00,33.4,23.6,30.25,East,83,3.0,7.0,67,0.00,SCT,,0.00,WeatherDisplay:10.37,2013-01-26 12:39:00,
2013-01-26 06:49:00,33.3,23.2,30.25,East,95,3.0,6.0,66,0.00,SCT,,0.00,WeatherDisplay:10.37,2013-01-26 12:49:00,
2013-01-26 06:59:00,33.1,23.0,30.25,East,91,3.0,8.0,66,0.00,SCT,,0.00,WeatherDisplay:10.37,2013-01-26 12:59:00,
2013-01-26 07:09:00,33.0,23.2,30.26,East,86,3.0,8.0,67,0.00,SCT,,0.00,WeatherDisplay:10.37,2013-01-26 13:09:00,
2013-01-26 07:14:00,32.8,22.7,30.26,East,91,3.0,7.0,66,0.00,SCT,,0.00,WeatherDisplay:10.37,2013-01-26 13:14:00,
2013-01-26 07:19:00,32.8,23.0,30.25,East,86,2.0,6.0,67,0.00,SCT,,0.00,WeatherDisplay:10.37,2013-01-26 13:19:00,
2013-01-26 07:29:00,32.8,23.0,30.26,East,94,2.0,6.0,67,0.00,CLR,,0.00,WeatherDisplay:10.37,2013-01-26 13:29:00,
2013-01-26 07:34:00,32.8,23.0,30.25,East,95,3.0,9.0,67,0.00,CLR,,0.00,WeatherDisplay:10.37,2013-01-26 13:34:00,
2013-01-26 07:39:00,32.6,22.8,30.25,East,82,5.0,8.0,67,0.00,CLR,,0.00,WeatherDisplay:10.37,2013-01-26 13:39:00,
2013-01-26 07:49:00,32.6,22.9,30.25,ESE,104,2.0,5.0,67,0.00,CLR,,0.00,WeatherDisplay:10.37,2013-01-26 13:49:00,
2013-01-26 07:54:00,32.6,22.8,30.25,East,97,3.0,5.0,67,0.00,CLR,,0.00,WeatherDisplay:10.37,2013-01-26 13:54:00,
2013-01-26 07:59:00,32.6,22.8,30.26,East,82,2.0,7.0,67,0.00,CLR,,0.00,WeatherDisplay:10.37,2013-01-26 13:59:00,
2013-01-26 08:09:00,32.8,23.1,30.25,East,93,3.0,6.0,67,0.00,CLR,,0.00,WeatherDisplay:10.37,2013-01-26 14:09:00,
2013-01-26 08:14:00,33.0,23.2,30.25,East,90,2.0,5.0,67,0.00,CLR,,0.00,WeatherDisplay:10.37,2013-01-26 14:14:00,
2013-01-26 08:19:00,33.1,23.3,30.25,East,83,2.0,9.0,67,0.00,CLR,,0.00,WeatherDisplay:10.37,2013-01-26 14:19:00,
2013-01-26 08:29:00,33.4,23.6,30.25,East,96,3.0,8.0,67,0.00,CLR,,0.00,WeatherDisplay:10.37,2013-01-26 14:29:00,
2013-01-26 08:34:00,33.5,23.8,30.25,East,89,3.0,8.0,67,0.00,CLR,,0.00,WeatherDisplay:10.37,2013-01-26 14:34:00,
2013-01-26 08:39:00,33.7,23.9,30.25,East,88,3.0,10.0,67,0.00,CLR,,0.00,WeatherDisplay:10.37,2013-01-26 14:39:00,
2013-01-26 08:49:00,34.0,24.2,30.25,ENE,76,3.0,9.0,67,0.00,CLR,,0.00,WeatherDisplay:10.37,2013-01-26 14:49:00,
2013-01-26 08:54:00,34.3,24.5,30.26,East,79,3.0,7.0,67,0.00,CLR,,0.00,WeatherDisplay:10.37,2013-01-26 14:54:00,
2013-01-26 08:59:00,34.6,24.4,30.26,East,91,2.0,8.0,66,0.00,CLR,,0.00,WeatherDisplay:10.37,2013-01-26 14:59:00,
2013-01-26 09:09:00,34.9,24.3,30.26,East,101,5.0,9.0,65,0.00,CLR,,0.00,WeatherDisplay:10.37,2013-01-26 15:09:00,
2013-01-26 09:19:00,35.3,24.7,30.26,East,90,2.0,5.0,65,0.00,CLR,,0.00,WeatherDisplay:10.37,2013-01-26 15:19:00,
2013-01-26 09:30:00,35.7,24.7,30.26,ESE,107,5.0,9.0,64,0.00,CLR,,0.00,WeatherDisplay:10.37,2013-01-26 15:30:00,
2013-01-26 09:39:00,36.1,25.1,30.26,ESE,115,2.0,7.0,64,0.00,CLR,,0.00,WeatherDisplay:10.37,2013-01-26 15:39:00,
2013-01-26 09:49:00,36.8,25.4,30.26,East,93,2.0,5.0,63,0.00,CLR,,0.00,WeatherDisplay:10.37,2013-01-26 15:49:00,
2013-01-26 09:59:00,37.4,25.6,30.26,East,96,2.0,6.0,62,0.00,CLR,,0.00,WeatherDisplay:10.37,2013-01-26 15:59:00,
2013-01-26 10:09:00,37.7,25.5,30.26,ENE,77,2.0,7.0,61,0.00,CLR,,0.00,WeatherDisplay:10.37,2013-01-26 16:09:00,
2013-01-26 10:19:00,38.4,25.8,30.26,East,95,2.0,7.0,60,0.00,CLR,,0.00,WeatherDisplay:10.37,2013-01-26 16:19:00,
2013-01-26 10:29:00,39.8,26.6,30.26,ESE,105,3.0,9.0,59,0.00,CLR,,0.00,WeatherDisplay:10.37,2013-01-26 16:29:00,
2013-01-26 10:34:00,40.5,26.9,30.26,East,98,2.0,8.0,58,0.00,CLR,,0.00,WeatherDisplay:10.37,2013-01-26 16:34:00,
2013-01-26 10:39:00,41.3,27.2,30.26,East,81,3.0,7.0,57,0.00,CLR,,0.00,WeatherDisplay:10.37,2013-01-26 16:39:00,
2013-01-26 10:49:00,42.7,27.6,30.26,East,101,2.0,5.0,55,0.00,CLR,,0.00,WeatherDisplay:10.37,2013-01-26 16:49:00,
2013-01-26 10:59:00,43.8,27.7,30.25,East,97,3.0,7.0,53,0.00,CLR,,0.00,WeatherDisplay:10.37,2013-01-26 16:59:00,
2013-01-26 11:04:00,44.3,28.2,30.25,East,85,5.0,7.0,53,0.00,CLR,,0.00,WeatherDisplay:10.37,2013-01-26 17:04:00,
2013-01-26 11:09:00,44.5,28.0,30.25,ENE,78,2.0,9.0,52,0.00,CLR,,0.00,WeatherDisplay:10.37,2013-01-26 17:09:00,
2013-01-26 11:14:00,45.0,28.4,30.25,ENE,72,2.0,7.0,52,0.00,CLR,,0.00,WeatherDisplay:10.37,2013-01-26 17:14:00,
2013-01-26 11:19:00,45.9,28.7,30.25,East,92,2.0,6.0,51,0.00,CLR,,0.00,WeatherDisplay:10.37,2013-01-26 17:19:00,
2013-01-26 11:29:00,46.9,27.2,30.25,ESE,120,5.0,7.0,46,0.00,CLR,,0.00,WeatherDisplay:10.37,2013-01-26 17:29:00,
2013-01-26 11:39:00,46.8,27.1,30.25,SE,145,2.0,7.0,46,0.00,CLR,,0.00,WeatherDisplay:10.37,2013-01-26 17:39:00,
2013-01-26 11:49:00,47.9,27.5,30.24,SSE,148,3.0,8.0,45,0.00,CLR,,0.00,WeatherDisplay:10.37,2013-01-26 17:49:00,
2013-01-26 11:54:00,48.6,28.2,30.23,SSE,165,1.0,7.0,45,0.00,CLR,,0.00,WeatherDisplay:10.37,2013-01-26 17:54:00,
2013-01-26 11:59:00,49.0,27.4,30.24,South,191,2.0,8.0,43,0.00,CLR,,0.00,WeatherDisplay:10.37,2013-01-26 17:59:00,
2013-01-26 12:09:00,49.4,27.8,30.22,SSE,153,3.0,7.0,43,0.00,CLR,,0.00,WeatherDisplay:10.37,2013-01-26 18:09:00,
2013-01-26 12:14:00,49.8,27.6,30.22,SSE,157,3.0,9.0,42,0.00,CLR,,0.00,WeatherDisplay:10.37,2013-01-26 18:14:00,
2013-01-26 12:19:00,50.1,27.9,30.22,SSE,160,6.0,10.0,42,0.00,CLR,,0.00,WeatherDisplay:10.37,2013-01-26 18:19:00,
2013-01-26 12:29:00,50.6,27.7,30.21,SE,133,5.0,12.0,41,0.00,CLR,,0.00,WeatherDisplay:10.37,2013-01-26 18:29:00,
2013-01-26 12:39:00,50.8,26.7,30.21,SE,128,6.0,12.0,39,0.00,CLR,,0.00,WeatherDisplay:10.37,2013-01-26 18:39:00,
2013-01-26 12:49:00,51.0,26.9,30.20,SSE,162,3.0,9.0,39,0.00,CLR,,0.00,WeatherDisplay:10.37,2013-01-26 18:49:00,
2013-01-26 12:54:00,51.5,27.3,30.20,SSE,168,5.0,10.0,39,0.00,CLR,,0.00,WeatherDisplay:10.37,2013-01-26 18:54:00,
2013-01-26 12:59:00,51.7,26.9,30.19,SSE,165,3.0,9.0,38,0.00,CLR,,0.00,WeatherDisplay:10.37,2013-01-26 18:59:00,
2013-01-26 13:09:00,52.0,27.1,30.19,SE,128,6.0,12.0,38,0.00,CLR,,0.00,WeatherDisplay:10.37,2013-01-26 19:09:00,
2013-01-26 13:19:00,52.4,27.5,30.18,SE,143,3.0,10.0,38,0.00,FEW,,0.00,WeatherDisplay:10.37,2013-01-26 19:19:00,
2013-01-26 13:29:00,53.4,28.4,30.17,ESE,121,5.0,9.0,38,0.00,FEW,,0.00,WeatherDisplay:10.37,2013-01-26 19:29:00,
2013-01-26 13:39:00,53.5,27.8,30.17,ESE,105,5.0,13.0,37,0.00,FEW,,0.00,WeatherDisplay:10.37,2013-01-26 19:39:00,
2013-01-26 13:49:00,53.5,27.2,30.17,ESE,123,5.0,12.0,36,0.00,FEW,,0.00,WeatherDisplay:10.37,2013-01-26 19:49:00,
2013-01-26 13:59:00,53.8,28.1,30.15,SSE,160,3.0,6.0,37,0.00,FEW,,0.00,WeatherDisplay:10.37,2013-01-26 19:59:00,
2013-01-26 14:09:00,54.0,27.6,30.15,SE,132,3.0,12.0,36,0.00,FEW,,0.00,WeatherDisplay:10.37,2013-01-26 20:09:00,
2013-01-26 14:19:00,54.1,27.7,30.15,SE,131,5.0,9.0,36,0.00,CLR,,0.00,WeatherDisplay:10.37,2013-01-26 20:19:00,
2013-01-26 14:29:00,54.0,27.6,30.14,SE,125,6.0,13.0,36,0.00,CLR,,0.00,WeatherDisplay:10.37,2013-01-26 20:29:00,
2013-01-26 14:34:00,54.1,27.7,30.15,SSE,162,1.0,8.0,36,0.00,CLR,,0.00,WeatherDisplay:10.37,2013-01-26 20:34:00,
2013-01-26 14:39:00,54.5,28.1,30.14,SE,131,2.0,6.0,36,0.00,CLR,,0.00,WeatherDisplay:10.37,2013-01-26 20:39:00,
2013-01-26 14:49:00,55.4,28.2,30.15,SSE,148,3.0,8.0,35,0.00,CLR,,0.00,WeatherDisplay:10.37,2013-01-26 20:49:00,
2013-01-26 14:59:00,55.6,27.6,30.14,ESE,106,3.0,9.0,34,0.00,CLR,,0.00,WeatherDisplay:10.37,2013-01-26 20:59:00,
2013-01-26 15:09:00,56.0,28.0,30.14,SE,135,5.0,7.0,34,0.00,CLR,,0.00,WeatherDisplay:10.37,2013-01-26 21:09:00,
2013-01-26 15:14:00,56.2,28.2,30.14,South,184,3.0,9.0,34,0.00,CLR,,0.00,WeatherDisplay:10.37,2013-01-26 21:14:00,
2013-01-26 15:19:00,56.5,28.4,30.14,SE,135,5.0,10.0,34,0.00,CLR,,0.00,WeatherDisplay:10.37,2013-01-26 21:19:00,
2013-01-26 15:29:00,56.3,28.3,30.14,ESE,122,2.0,8.0,34,0.00,CLR,,0.00,WeatherDisplay:10.37,2013-01-26 21:29:00,
2013-01-26 15:34:00,56.6,28.5,30.14,ESE,110,2.0,8.0,34,0.00,CLR,,0.00,WeatherDisplay:10.37,2013-01-26 21:34:00,
2013-01-26 15:39:00,56.6,27.8,30.14,East,89,3.0,12.0,33,0.00,CLR,,0.00,WeatherDisplay:10.37,2013-01-26 21:39:00,
2013-01-26 15:49:00,56.6,27.8,30.14,SE,125,5.0,10.0,33,0.00,CLR,,0.00,WeatherDisplay:10.37,2013-01-26 21:49:00,
2013-01-26 15:54:00,56.5,27.7,30.13,SE,129,5.0,10.0,33,0.00,CLR,,0.00,WeatherDisplay:10.37,2013-01-26 21:54:00,
2013-01-26 15:59:00,56.2,27.4,30.13,SSE,148,5.0,12.0,33,0.00,CLR,,0.00,WeatherDisplay:10.37,2013-01-26 21:59:00,
2013-01-26 16:04:00,55.7,27.0,30.13,SSE,148,2.0,9.0,33,0.00,CLR,,0.00,WeatherDisplay:10.37,2013-01-26 22:04:00,
2013-01-26 16:09:00,55.3,26.7,30.12,ESE,120,2.0,12.0,33,0.00,CLR,,0.00,WeatherDisplay:10.37,2013-01-26 22:09:00,
2013-01-26 16:14:00,54.9,27.1,30.12,SE,124,5.0,9.0,34,0.00,CLR,,0.00,WeatherDisplay:10.37,2013-01-26 22:14:00,
2013-01-26 16:19:00,54.7,26.8,30.12,SE,134,5.0,10.0,34,0.00,CLR,,0.00,WeatherDisplay:10.37,2013-01-26 22:19:00,
2013-01-26 16:29:00,54.2,27.1,30.12,ESE,110,5.0,9.0,35,0.00,FEW,,0.00,WeatherDisplay:10.37,2013-01-26 22:29:00,
2013-01-26 16:34:00,54.0,27.6,30.12,SE,127,2.0,7.0,36,0.00,FEW,,0.00,WeatherDisplay:10.37,2013-01-26 22:34:00,
2013-01-26 16:39:00,53.8,27.5,30.12,SE,137,5.0,10.0,36,0.00,FEW,,0.00,WeatherDisplay:10.37,2013-01-26 22:39:00,
2013-01-26 16:49:00,53.5,27.8,30.11,SE,134,2.0,6.0,37,0.00,FEW,,0.00,WeatherDisplay:10.37,2013-01-26 22:49:00,
2013-01-26 16:54:00,53.4,27.8,30.11,SE,145,1.0,8.0,37,0.00,FEW,,0.00,WeatherDisplay:10.37,2013-01-26 22:54:00,
2013-01-26 16:59:00,53.1,27.4,30.11,SE,133,1.0,6.0,37,0.00,FEW,,0.00,WeatherDisplay:10.37,2013-01-26 22:59:00,
2013-01-26 17:09:00,52.5,27.6,30.11,ESE,118,2.0,9.0,38,0.00,CLR,,0.00,WeatherDisplay:10.37,2013-01-26 23:09:00,
2013-01-26 17:19:00,51.8,27.6,30.10,ESE,109,2.0,5.0,39,0.00,CLR,,0.00,WeatherDisplay:10.37,2013-01-26 23:19:00,
2013-01-26 17:24:00,51.5,27.3,30.10,ESE,116,2.0,5.0,39,0.00,CLR,,0.00,WeatherDisplay:10.37,2013-01-26 23:24:00,
2013-01-26 17:29:00,51.0,26.9,30.11,SE,127,2.0,9.0,39,0.00,CLR,,0.00,WeatherDisplay:10.37,2013-01-26 23:29:00,
2013-01-26 17:39:00,50.3,27.5,30.10,East,88,3.0,8.0,41,0.00,CLR,,0.00,WeatherDisplay:10.37,2013-01-26 23:39:00,
2013-01-26 17:49:00,49.9,28.3,30.11,ESE,106,2.0,7.0,43,0.00,CLR,,0.00,WeatherDisplay:10.37,2013-01-26 23:49:00,
2013-01-26 17:54:00,49.6,28.0,30.10,ESE,108,2.0,6.0,43,0.00,CLR,,0.00,WeatherDisplay:10.37,2013-01-26 23:54:00,
2013-01-26 17:59:00,49.2,27.7,30.10,ESE,112,2.0,7.0,43,0.00,CLR,,0.00,WeatherDisplay:10.37,2013-01-26 23:59:00,
2013-01-26 18:09:00,48.4,27.5,30.11,ESE,106,2.0,6.0,44,0.00,CLR,,0.00,WeatherDisplay:10.37,2013-01-27 00:09:00,
2013-01-26 18:19:00,47.2,26.9,30.10,East,101,3.0,5.0,45,0.00,CLR,,0.00,WeatherDisplay:10.37,2013-01-27 00:19:00,
2013-01-26 18:29:00,46.5,26.8,30.10,ESE,112,3.0,7.0,46,0.00,CLR,,0.00,WeatherDisplay:10.37,2013-01-27 00:29:00,
2013-01-26 18:40:00,46.7,27.0,30.11,ESE,111,1.0,8.0,46,0.00,CLR,,0.00,WeatherDisplay:10.37,2013-01-27 00:40:00,
2013-01-26 18:49:00,46.8,27.1,30.11,East,96,6.0,12.0,46,0.00,CLR,,0.00,WeatherDisplay:10.37,2013-01-27 00:49:00,
2013-01-26 18:59:00,46.9,27.2,30.11,East,92,3.0,7.0,46,0.00,CLR,,0.00,WeatherDisplay:10.37,2013-01-27 00:59:00,
2013-01-26 19:04:00,46.8,27.1,30.11,East,84,3.0,8.0,46,0.00,CLR,,0.00,WeatherDisplay:10.37,2013-01-27 01:04:00,
2013-01-26 19:09:00,46.5,26.8,30.11,East,94,3.0,8.0,46,0.00,CLR,,0.00,WeatherDisplay:10.37,2013-01-27 01:09:00,
2013-01-26 19:19:00,46.5,26.8,30.11,ESE,109,3.0,10.0,46,0.00,CLR,,0.00,WeatherDisplay:10.37,2013-01-27 01:19:00,
2013-01-26 19:29:00,46.7,27.0,30.11,ESE,104,5.0,10.0,46,0.00,CLR,,0.00,WeatherDisplay:10.37,2013-01-27 01:29:00,
2013-01-26 19:39:00,46.6,26.9,30.11,East,97,2.0,9.0,46,0.00,CLR,,0.00,WeatherDisplay:10.37,2013-01-27 01:39:00,
2013-01-26 19:49:00,46.4,26.7,30.11,ESE,106,3.0,10.0,46,0.00,CLR,,0.00,WeatherDisplay:10.37,2013-01-27 01:49:00,
2013-01-26 19:54:00,46.3,27.2,30.11,ESE,106,3.0,9.0,47,0.00,CLR,,0.00,WeatherDisplay:10.37,2013-01-27 01:54:00,
2013-01-26 19:59:00,46.1,27.5,30.11,ESE,103,2.0,5.0,48,0.00,CLR,,0.00,WeatherDisplay:10.37,2013-01-27 01:59:00,
2013-01-26 20:09:00,45.6,27.0,30.10,ESE,104,5.0,8.0,48,0.00,FEW,,0.00,WeatherDisplay:10.37,2013-01-27 02:09:00,
2013-01-26 20:19:00,45.2,27.2,30.10,East,98,3.0,7.0,49,0.00,FEW,,0.00,WeatherDisplay:10.37,2013-01-27 02:19:00,
2013-01-26 20:29:00,44.9,26.9,30.10,East,91,3.0,7.0,49,0.00,FEW,,0.00,WeatherDisplay:10.37,2013-01-27 02:29:00,
2013-01-26 20:39:00,44.7,26.7,30.10,East,99,5.0,7.0,49,0.00,FEW,,0.00,WeatherDisplay:10.37,2013-01-27 02:39:00,
2013-01-26 20:49:00,44.6,27.1,30.10,East,98,6.0,9.0,50,0.00,FEW,,0.00,WeatherDisplay:10.37,2013-01-27 02:49:00,
2013-01-26 20:59:00,44.4,26.9,30.10,East,95,5.0,10.0,50,0.00,FEW,,0.00,WeatherDisplay:10.37,2013-01-27 02:59:00,
2013-01-26 21:09:00,44.3,27.3,30.09,ESE,119,5.0,9.0,51,0.00,FEW,,0.00,WeatherDisplay:10.37,2013-01-27 03:09:00,
2013-01-26 21:20:00,44.1,27.1,30.09,ESE,109,3.0,12.0,51,0.00,CLR,,0.00,WeatherDisplay:10.37,2013-01-27 03:20:00,
2013-01-26 21:29:00,44.0,27.0,30.09,East,96,6.0,10.0,51,0.00,CLR,,0.00,WeatherDisplay:10.37,2013-01-27 03:29:00,
2013-01-26 21:40:00,43.7,26.7,30.08,East,92,5.0,7.0,51,0.00,CLR,,0.00,WeatherDisplay:10.37,2013-01-27 03:40:00,
2013-01-26 21:49:00,43.4,26.5,30.08,East,94,2.0,7.0,51,0.00,CLR,,0.00,WeatherDisplay:10.37,2013-01-27 03:49:00,
2013-01-26 21:54:00,43.3,26.4,30.07,ESE,106,3.0,9.0,51,0.00,CLR,,0.00,WeatherDisplay:10.37,2013-01-27 03:54:00,
2013-01-26 21:59:00,43.3,26.9,30.08,ESE,104,3.0,14.0,52,0.00,CLR,,0.00,WeatherDisplay:10.37,2013-01-27 03:59:00,
2013-01-26 22:09:00,43.3,26.8,30.07,ESE,104,3.0,8.0,52,0.00,CLR,,0.00,WeatherDisplay:10.37,2013-01-27 04:09:00,
2013-01-26 22:14:00,43.3,26.8,30.07,ESE,104,3.0,9.0,52,0.00,CLR,,0.00,WeatherDisplay:10.37,2013-01-27 04:14:00,
2013-01-26 22:19:00,43.1,26.7,30.07,ESE,107,2.0,8.0,52,0.00,CLR,,0.00,WeatherDisplay:10.37,2013-01-27 04:19:00,
2013-01-26 22:29:00,43.1,26.7,30.08,ESE,108,2.0,9.0,52,0.00,CLR,,0.00,WeatherDisplay:10.37,2013-01-27 04:29:00,
2013-01-26 22:39:00,43.4,26.9,30.08,East,99,3.0,8.0,52,0.00,CLR,,0.00,WeatherDisplay:10.37,2013-01-27 04:39:00,
2013-01-26 22:49:00,43.4,26.9,30.08,East,101,2.0,6.0,52,0.00,CLR,,0.00,WeatherDisplay:10.37,2013-01-27 04:49:00,
2013-01-26 22:54:00,43.4,27.0,30.07,East,90,3.0,10.0,52,0.00,CLR,,0.00,WeatherDisplay:10.37,2013-01-27 04:54:00,
2013-01-26 22:59:00,43.7,26.7,30.07,East,95,3.0,9.0,51,0.00,CLR,,0.00,WeatherDisplay:10.37,2013-01-27 04:59:00,
2013-01-26 23:04:00,43.9,26.9,30.07,ESE,117,5.0,9.0,51,0.00,CLR,,0.00,WeatherDisplay:10.37,2013-01-27 05:04:00,
2013-01-26 23:09:00,43.9,27.0,30.07,ESE,123,2.0,8.0,51,0.00,CLR,,0.00,WeatherDisplay:10.37,2013-01-27 05:09:00,
2013-01-26 23:20:00,44.3,26.3,30.07,ESE,117,1.0,7.0,49,0.00,CLR,,0.00,WeatherDisplay:10.37,2013-01-27 05:20:00,
2013-01-26 23:29:00,44.7,26.2,30.08,SE,135,5.0,12.0,48,0.00,BKN,,0.00,WeatherDisplay:10.37,2013-01-27 05:29:00,
2013-01-26 23:34:00,45.2,26.7,30.07,SSE,150,3.0,13.0,48,0.00,BKN,,0.00,WeatherDisplay:10.37,2013-01-27 05:34:00,
2013-01-26 23:39:00,45.5,26.9,30.07,SE,134,5.0,12.0,48,0.00,BKN,,0.00,WeatherDisplay:10.37,2013-01-27 05:39:00,
2013-01-26 23:49:00,45.8,26.2,30.07,SE,133,5.0,9.0,46,0.00,BKN,,0.00,WeatherDisplay:10.37,2013-01-27 05:49:00,
2013-01-26 23:59:00,45.8,26.2,30.07,SE,130,3.0,8.0,46,0.00,BKN,,0.00,WeatherDisplay:10.37,2013-01-27 05:59:00,